Weather History for Pompano Beach, FL

Change the Weather History Date:

Monday, April 1, 2013

  Actual Average Record
Temperature  
Mean Temperature 78 °F -  
Max Temperature 87 °F 83 °F 91 °F (1985)
Min Temperature 73 °F 64 °F 48 °F (1987)
Cooling Degree Days 14    
Growing Degree Days 28 (Base 50)    
Moisture  
Dew Point 67 °F    
Average Humidity 73    
Maximum Humidity 94    
Minimum Humidity 43    
Precipitation  
Precipitation 0.00 in - - ()
Sea Level Pressure  
Sea Level Pressure 30.02 in    
Wind  
Wind Speed 11 mph (South)    
Max Wind Speed 16 mph    
Max Gust Speed 23 mph    
Visibility 10 miles    
Events      
Averages and records for this station are not official NWS values.
T = Trace of Precipitation, MM = Missing Value Source: NWS Daily Summary

Daily Weather History Graph

Daily Weather History Graph

Search for Another Location

Airport:

Trip Planner

Search our weather history database for the weather conditions in past years. The results will help you decide how hot, cold, wet, or windy it might be!

Date:

Astronomy

Apr. 01, 2013 Rise Set
Actual Time 7:11 AM EDT 7:37 PM EDT
Civil Twilight 6:48 AM EDT 8:00 PM EDT
Nautical Twilight 6:20 AM EDT 8:27 PM EDT
Astronomical Twilight 5:53 AM EDT 8:55 PM EDT
Moon 12:19 AM EDT (4/1) 11:20 AM EDT (4/1)
Length of Visible Light 13h 12m
Length of Day
12h 26m
Waning Gibbous, 67% of the Moon is Illuminated
Apr 1
Waning Gibbous
Apr 3
Last Quarter
Apr 10
New
Apr 18
First Quarter
Apr 25
Full

Hourly Weather History & Observations

Time (EDT) Temp. Heat Index Dew Point Humidity Pressure Visibility Wind Dir Wind Speed Gust Speed Precip Events Conditions
12:53 AM 73.0 °F - 69.1 °F 87% 30.07 in 10.0 mi SE 9.2 mph - N/A   Partly Cloudy
1:53 AM 73.9 °F - 68.0 °F 82% 30.04 in 10.0 mi SSE 12.7 mph 20.7 mph N/A   Scattered Clouds
2:53 AM 73.9 °F - 69.1 °F 85% 30.02 in 10.0 mi SE 11.5 mph 18.4 mph N/A   Overcast
3:22 AM 73.4 °F - 69.8 °F 88% 30.01 in 10.0 mi SSE 10.4 mph - 0.00 in   Mostly Cloudy
3:53 AM 73.9 °F - 70.0 °F 87% 30.02 in 10.0 mi South 11.5 mph - 0.00 in   Mostly Cloudy
4:18 AM 73.4 °F - 69.8 °F 88% 30.01 in 10.0 mi South 10.4 mph - N/A   Mostly Cloudy
4:53 AM 73.9 °F - 69.1 °F 85% 30.01 in 10.0 mi South 10.4 mph - N/A   Mostly Cloudy
5:13 AM 73.4 °F - 69.8 °F 88% 30.01 in 10.0 mi South 8.1 mph - N/A   Mostly Cloudy
5:42 AM 73.4 °F - 69.8 °F 88% 30.01 in 10.0 mi South 8.1 mph - N/A   Scattered Clouds
5:53 AM 73.0 °F - 70.0 °F 90% 30.02 in 10.0 mi South 9.2 mph - N/A   Partly Cloudy
6:53 AM 73.9 °F - 71.1 °F 91% 30.02 in 10.0 mi SSE 12.7 mph 21.9 mph N/A   Mostly Cloudy
7:01 AM 73.4 °F - 71.6 °F 94% 30.02 in 10.0 mi South 10.4 mph 21.9 mph N/A   Scattered Clouds
7:53 AM 73.9 °F - 71.1 °F 91% 30.04 in 10.0 mi South 5.8 mph - N/A   Scattered Clouds
8:53 AM 75.9 °F - 71.1 °F 85% 30.06 in 9.0 mi South 9.2 mph - N/A   Mostly Cloudy
10:00 AM 78.8 °F - 71.6 °F 78% 30.07 in 10.0 mi SSE 12.7 mph - N/A   Mostly Cloudy
10:13 AM 78.8 °F - 69.8 °F 74% 30.06 in 10.0 mi SSE 15.0 mph 21.9 mph N/A   Scattered Clouds
10:53 AM 79.0 °F - 70.0 °F 74% 30.06 in 10.0 mi SSE 12.7 mph - N/A   Mostly Cloudy
11:53 AM 77.0 °F - 70.0 °F 79% 30.06 in 10.0 mi SE 13.8 mph - N/A   Mostly Cloudy
12:53 PM 81.0 °F 83.8 °F 68.0 °F 65% 30.04 in 10.0 mi South 6.9 mph - N/A   Mostly Cloudy
1:16 PM 84.2 °F 84.4 °F 60.8 °F 45% 30.04 in 10.0 mi WSW 15.0 mph 23.0 mph N/A   Scattered Clouds
1:49 PM 84.2 °F 84.4 °F 60.8 °F 45% 30.02 in 10.0 mi NW 13.8 mph 23.0 mph N/A   Scattered Clouds
1:53 PM 84.9 °F 84.8 °F 60.1 °F 43% 30.02 in 10.0 mi NNW 15.0 mph - N/A   Partly Cloudy
2:00 PM 84.2 °F 84.4 °F 60.8 °F 45% 30.01 in 10.0 mi NNW 11.5 mph - N/A   Partly Cloudy
3:00 PM 80.6 °F 83.2 °F 68.0 °F 65% 29.99 in 10.0 mi SSE 16.1 mph 21.9 mph N/A   Mostly Cloudy
3:53 PM 79.0 °F - 63.0 °F 58% 30.00 in 10.0 mi SSE 16.1 mph - 0.00 in   Scattered Clouds
4:53 PM 80.1 °F 80.7 °F 59.0 °F 48% 29.97 in 10.0 mi SSE 15.0 mph - N/A   Scattered Clouds
5:53 PM 79.0 °F - 62.1 °F 56% 29.98 in 10.0 mi SSW 6.9 mph - N/A   Scattered Clouds
6:53 PM 79.0 °F - 62.1 °F 56% 29.99 in 10.0 mi South 4.6 mph - N/A   Scattered Clouds
7:53 PM 77.0 °F - 63.0 °F 62% 29.99 in 10.0 mi SSW 8.1 mph - N/A   Partly Cloudy
8:53 PM 75.0 °F - 64.0 °F 69% 30.01 in 10.0 mi SW 6.9 mph - N/A   Clear
9:53 PM 75.0 °F - 64.0 °F 69% 30.03 in 10.0 mi WSW 6.9 mph - N/A   Clear
10:53 PM 73.9 °F - 64.0 °F 71% 30.04 in 10.0 mi West 6.9 mph - N/A   Clear
11:53 PM 73.0 °F - 63.0 °F 71% 30.04 in 10.0 mi West 6.9 mph - N/A   Clear